Regional Weather Roundup
Issued by NWS

Home | Current Version | Previous Version | Graphics & Text | Print | Product List | Glossary On
Versions: 1 2 3 4 5 6 7 8 9 10 11 12 13 14 15 16 17 18 19 20 21 22 23 24 25 26 27 28 29 30 31 32 33 34 35 36 37 38 39 40 41 42 43 44 45 46 47 48 49 50
000
ASUS43 KFSD 051310
RWRSD

WEATHER ROUNDUP FOR SOUTH DAKOTA
NATIONAL WEATHER SERVICE SIOUX FALLS SD
800 AM CDT SAT SEP 05 2015

NOTE: "FAIR" INDICATES FEW OR NO CLOUDS BELOW 12,000 FEET WITH NO
SIGNIFICANT WEATHER AND/OR OBSTRUCTIONS TO VISIBILITY.


SDZ001>005-009-010-012>017-051400-
NORTHWEST AND NORTH CENTRAL SOUTH DAKOTA

CITY           SKY/WX    TMP DP  RH WIND       PRES   REMARKS
BUFFALO          N/A     65  63  93 NE16      29.75S
FAITH            N/A     69  65  86 NE13      29.79F
MOBRIDGE       CLOUDY    71  71 100 E7        29.79R FOG
$$

SDZ012>016-024>037-041>051-057-063-072>074-051400-
SOUTHWEST AND SOUTH CENTRAL SOUTH DAKOTA

CITY           SKY/WX    TMP DP  RH WIND       PRES   REMARKS
RAPID CTY ARPT CLOUDY    63  59  87 CALM      29.83S
PIERRE         CLOUDY    69  68  96 S7        29.78R
CUSTER         CLOUDY    58  53  84 N3        29.97R
ELLSWORTH AFB  CLOUDY    64  61  88 W10       29.82S
PHILIP         LGT RAIN  71  62  73 S10       29.80S
PINE RIDGE     CLOUDY    65  60  84 E7        29.82F
WINNER         PTSUNNY   74  62  66 E6        29.79R
$$

SDZ004>011-016>023-039-040-051400-
NORTHEAST SOUTH DAKOTA

CITY           SKY/WX    TMP DP  RH WIND       PRES   REMARKS
ABERDEEN       PTCLDY    70  68  93 NE5       29.81R
WATERTOWN      MOSUNNY   70  67  90 SE12      29.84S
BROOKINGS      MOSUNNY   70  66  88 SE13      29.87S
SISSETON         N/A     69  69 100 SW3       29.83R
$$

SDZ017-020-022-023-036>040-048>070-051400-
SOUTHEAST SOUTH DAKOTA

CITY           SKY/WX    TMP DP  RH WIND       PRES   REMARKS
SIOUX FALLS    CLOUDY    73  68  84 S10       29.86S
HURON          CLOUDY    70  67  90 SE8       29.78R
CHAMBERLAIN    MOCLDY    68  67  97 SE5       29.79R
MITCHELL       CLOUDY    72  68  87 SE10      29.80S
YANKTON        PTSUNNY   75  66  73 S10       29.82R
$$

ABBREVIATIONS USED IN REMARKS
   TC - TEMPERATURE IN CELSIUS
  WCI - WIND CHILL INDEX
   HX - HEAT INDEX
  VSB - VISIBILITY




USA.gov is the U.S. government's official web portal to all federal, state and local government web resources and services.